User: anonymous   Login
Location: ???????
(54.9567°N, 38.2836°E)
Time: 16:35:53
(UTC+00:00)
Language:

FENGYUN 3A - Orbit

View from above orbital plane
View from above orbital plane
View from above satellite
View from above satellite

Ground track
Ground track

The orbit data is extracted from the following two-line orbital elements,

1 32958U 08026A   24171.14803171  .00000158  00000-0  95948-4 0  9996
2 32958  98.6042 118.2104 0009875  69.5940 290.6295 14.19106500832235
Epoch (UTC): 19 June 2024 03:33:09
Eccentricity: 0.0009875
inclination: 98.6042°
perigee height: 821 km
apogee height: 835 km
right ascension of ascending node: 118.2104°
argument of perigee: 69.5940°
revolutions per day: 14.19106500
mean anomaly at epoch: 290.6295°
orbit number at epoch: 83223

The dashed part of the orbit path shows where the satellite is in the earth's shadow,  

DLR